Find Iridium 7

NORAD ID: 24793 Int'l Des: 1997-020 Owner: IRID Country: US Constellation: iridium operational
LEOCIRCULARPOLAR

Current View

Loading 3D Globe...

About Iridium 7

Description loading...

Upcoming Passes

Passes for default location (London). Set your location on the main map for personalized predictions.

Altitude History

Loading altitude history...

Two-Line Element Set

1 24793U 97020B 26146.20048224 .00000293 00000-0 93587-4 0 9994
2 24793 86.3978 33.0817 0002529 84.5049 275.6436 14.36235137521127
Epoch: May 26, 2026 • Age: 8 hours

Current Status

Altitude 786.6 km
Velocity 7.46 km/s
Sub-Earth Point -38.29°S, 48.92°W
Launch Date May 5, 1997
Age 29 years
Type communications

Technical Details

Classification Payload
Mass 662.00 kg
Dry Mass 556.00 kg
Total Mass 662.00 kg
Length 3.50 m
Diameter 1.00 m
Span 5.00 m
Shape Box + 2 Pan
Manufacturer MOTO/LMMS
Bus Type LM700
Phase Status In Orbit
Owner/State IRID/US

Most Searched